Weather in Bombinhas

Brazil     27°08′56″S   48°29′26″W
temp.,
°C
wind,
m/s
gust,
m/s
humid.,
%
clouds,
%
prec.,
mm/h
press.,
hPa
HPBL,
m
15 may, sat
sat1500:00+17w228399 0.1 1021186
03:00+17wsw228763 0.1 1020118
06:00+17w118399 0.0 1019101
09:00+18wnw1280100 0.1 1021139
12:00+20n237288 0.0 1021532
15:00+20ne33758 0.1 1019404
18:00+19nne34780 0.0 1019296
21:00+19nnw23791 0.0 1021402
16 may, sun
sun1600:00+17w228812 0.1 1020116
03:00+16wsw238910 0.1 1019107
06:00+16w22907 0.0 1019104
09:00+17w22830 0.0 1021157
12:00+20nne34718 0.0 1019511
15:00+20ne44751 0.0 1017337
18:00+19nne458514 0.0 1018317
21:00+19nnw348896 0.1 1019333
17 may, mon
mon1700:00+18wnw2391100 0.3 1018175
03:00+18wnw239177 0.5 1016114
06:00+18wnw23899 0.0 1016103
09:00+19wnw33825 0.0 1017190
12:00+22se23650 0.0 1015417
15:00+20se677415 0.0 1014422
18:00+19sse68830 0.0 1015450
21:00+18s58848 0.0 1017482
18 may, tue
tue1800:00+18ssw3584100 0.0 1018370
03:00+17ssw2385100 0.1 1017281
06:00+17s2286100 0.3 1018295
09:00+17s237928 0.4 1019389
12:00+19se226882 0.1 1019599
15:00+19se54677 0.1 1017677
18:00+17sse567410 0.0 1018515
21:00+17ssw347636 0.0 1019432
19 may, wed
wed1900:00+16ssw227788 0.0 1019236
03:00+16s2277100 0.0 1018177
06:00+16sw017581 0.0 1017148
09:00+17sw22745 0.0 1019251
12:00+19ese21665 0.0 1018576
15:00+18ese43705 0.0 1016500
18:00+17sse45790 0.0 1017421
21:00+16ssw34804 0.0 1018317